map of LIO home
LIO - Airport
Location
City:  Puerto Limón, Limón, Costa Rica
Name:Puerto Limón International Airport
ICAO:MRLM
IATA:LIO

Details
Type:Airport (Aerodrome, Airfield)
Use:Public/Civil, International (customs port of entry)
Latitude:9°57'29"N (9.958056)
Longitude:83°01'19"W (-83.021943)
Elevation:7 ft (2 m)
Variation:2.58°W (WMM2015v2 magnetic declination)
-0.13° annual change
Runways:1
Longest:5906 × 98 ft (1800 × 30 m)

Time
Time Zone:UTC-6
Local Time:

Weather
METAR:MRLM 041400Z 23002KT CAVOK 25/21 A2996
TAF:MRLM 041100Z 0412/0512 25006KT 9999 FEW025 TX29/0320Z TN21/0511Z
BECMG 0414/0416 07007KT
BECMG 0503/0505 25006KT

Related Locations
Nearby:
Farthest:CCK: 12276 mi / 19757 km
West Island (Pulau Panjang) [Cocos (Keeling) Islands], CC

Find:

   beyond  
but within

Other Information
Maps:
NOTAMs:
Links:
Sources:

  
  • flag of Costa Rica
  

Sectional Chart

Flight Planning
at skyvector.com

Satellite Image

Google Maps Satellite view

 

Copyright © 2004-2019 Karl L. Swartz. All rights reserved.
The Great Circle Mapper name and logo are trademarks of the Great Circle Mapper.
All other trademarks mentioned herein belong to their respective owners.
Please see credits for attibutions and further copyright information.

  Follow gcmap on Facebook Follow gcmap on Twitter GCmap on LinkedIn

hCard Microformat

Geo Microformat